WXM80 ListenWXM80 Stop

You find our weather info also at:

UK Metoffice

WeatherCloud

Weather Underground

Northeastern Weather Network

AWEKAS

Citizen Weather Observer Program (CWOP)

HAMweather, WeatherForYou, PWS Weather


Weather Underground History page Text

Daily Summary for February 7, 2018 Units:  Metric    English   Both
« Previous Day
Next Day »
Daily Weekly Monthly Yearly Custom
  High: Low: Average:
Temperature: 9.9 °C -2.9 °C 1.2 °C
Dew Point: 9.7 °C -5.2 °C -0.6 °C
Humidity: 98 % 73 % 88 %
Wind Speed: 17.7 km/h 0 km/h 8.9 km/h
Wind Gust: 35.2 km/h - -
Wind:- - SE
Pressure: 1024.9 hPa 1001.9 hPa -
Precipitation: 15.75 mm    
Historical Graphs
 
 
Tabular Data for February 7, 2018
Time Temperature Dew Point Pressure Wind Wind Speed Wind Gust Humidity Rainfall Rate (Hourly)
00:02 -2.9 °C -4.6 °C 1024.3 hPa Calm     88 % 0 mm
00:07 -2.9 °C -4.6 °C 1024.3 hPa NE 4.2 km/h 13 km/h 88 % 0 mm
00:12 -2.5 °C -4.2 °C 1024.3 hPa ENE 8.2 km/h 16.7 km/h 88 % 0 mm
00:17 -2 °C -3.9 °C 1024.3 hPa ENE 4.7 km/h 9.3 km/h 87 % 0 mm
00:22 -1.7 °C -3.8 °C 1024.6 hPa ENE 7.1 km/h 13 km/h 85 % 0 mm
00:27 -1.4 °C -3.8 °C 1024.6 hPa ENE 5.5 km/h 13 km/h 84 % 0 mm
00:32 -1.3 °C -3.8 °C 1024.6 hPa ENE 4.7 km/h 11.3 km/h 83 % 0 mm
00:37 -1.2 °C -3.9 °C 1024.6 hPa ENE 6.9 km/h 11.3 km/h 82 % 0 mm
00:42 -1.1 °C -3.7 °C 1024.6 hPa ENE 5.6 km/h 9.3 km/h 82 % 0 mm
00:48 -0.9 °C -3.9 °C 1024.6 hPa ENE 8.5 km/h 16.7 km/h 80 % 0 mm
00:53 -0.8 °C -3.8 °C 1024.6 hPa ENE 8 km/h 13 km/h 80 % 0 mm
00:58 -0.8 °C -3.9 °C 1024.6 hPa ENE 10.1 km/h 14.8 km/h 79 % 0 mm
01:03 -0.8 °C -3.9 °C 1024.6 hPa NE 10.6 km/h 16.1 km/h 79 % 0 mm
01:08 -0.8 °C -3.9 °C 1024.9 hPa ENE 7.1 km/h 11.1 km/h 79 % 0 mm
01:13 -0.8 °C -3.9 °C 1024.6 hPa ENE 13.8 km/h 18.5 km/h 79 % 0 mm
01:18 -0.8 °C -4.1 °C 1024.6 hPa East 9.7 km/h 16.7 km/h 78 % 0 mm
01:23 -0.8 °C -4.1 °C 1024.6 hPa ENE 12.6 km/h 18.5 km/h 78 % 0 mm
01:28 -0.8 °C -4.3 °C 1024.6 hPa ENE 10.1 km/h 16.7 km/h 77 % 0 mm
01:33 -0.9 °C -4.4 °C 1024.6 hPa East 9.8 km/h 18.5 km/h 77 % 0 mm
01:38 -0.9 °C -4.2 °C 1024.6 hPa ENE 10.9 km/h 14.8 km/h 78 % 0 mm
01:43 -0.9 °C -4.3 °C 1024.6 hPa East 11.1 km/h 18.5 km/h 78 % 0 mm
01:48 -1.1 °C -4.8 °C 1024.6 hPa NE 13.4 km/h 18.5 km/h 76 % 0 mm
01:53 -1.1 °C -4.6 °C 1024.6 hPa ENE 10.3 km/h 13 km/h 77 % 0 mm
01:58 -1.1 °C -4.6 °C 1024.3 hPa ENE 11.9 km/h 16.7 km/h 77 % 0 mm
02:03 -1.1 °C -4.8 °C 1024.6 hPa ENE 15.6 km/h 18.5 km/h 76 % 0 mm
02:08 -1.1 °C -4.8 °C 1024.6 hPa ENE 9.3 km/h 14.8 km/h 76 % 0 mm
02:13 -1.2 °C -4.8 °C 1024.3 hPa ENE 13.7 km/h 18.5 km/h 76 % 0 mm
02:18 -1.2 °C -5.1 °C 1024.3 hPa East 13 km/h 22.2 km/h 75 % 0 mm
02:23 -1.2 °C -5.2 °C 1024.3 hPa East 12.1 km/h 16.7 km/h 74 % 0 mm
02:28 -1.2 °C -5.2 °C 1024.3 hPa ENE 10.3 km/h 14.8 km/h 74 % 0 mm
02:33 -1.2 °C -5.1 °C 1024.3 hPa East 14.3 km/h 16.7 km/h 75 % 0 mm
02:39 -1.1 °C -5 °C 1024.3 hPa East 13.4 km/h 18.5 km/h 75 % 0 mm
02:44 -1.1 °C -5 °C 1024.3 hPa ENE 14.5 km/h 16.1 km/h 75 % 0 mm
02:49 -1.1 °C -5 °C 1024.3 hPa East 11.1 km/h 16.7 km/h 75 % 0 mm
02:54 -1.1 °C -4.9 °C 1024.3 hPa ENE 8.5 km/h 14.8 km/h 75 % 0 mm
02:59 -1.1 °C -4.8 °C 1024.3 hPa East 12.4 km/h 16.7 km/h 76 % 0 mm
03:04 -1.1 °C -5.1 °C 1024.3 hPa ENE 13.7 km/h 18.5 km/h 74 % 0 mm
03:09 -1 °C -5.1 °C 1024.3 hPa East 10.6 km/h 19.3 km/h 74 % 0 mm
03:14 -0.9 °C -5 °C 1023.9 hPa ENE 12.7 km/h 16.7 km/h 74 % 0 mm
03:19 -0.9 °C -4.8 °C 1023.9 hPa ENE 14.5 km/h 24.1 km/h 75 % 0 mm
03:24 -0.9 °C -5 °C 1023.9 hPa ENE 12.4 km/h 20.4 km/h 74 % 0 mm
03:29 -0.9 °C -4.9 °C 1023.6 hPa ENE 14.5 km/h 22.2 km/h 74 % 0 mm
03:34 -0.9 °C -4.9 °C 1023.6 hPa ENE 15.6 km/h 22.2 km/h 74 % 0 mm
03:39 -0.8 °C -4.9 °C 1023.6 hPa ENE 13 km/h 18.5 km/h 74 % 0 mm
03:44 -0.8 °C -4.9 °C 1023.9 hPa East 13.4 km/h 22.2 km/h 74 % 0 mm
03:49 -0.8 °C -5.1 °C 1024.3 hPa ENE 13.2 km/h 18.5 km/h 73 % 0 mm
03:54 -0.8 °C -5 °C 1024.3 hPa East 10.8 km/h 16.7 km/h 73 % 0 mm
03:59 -0.8 °C -4.8 °C 1023.9 hPa East 11.1 km/h 16.7 km/h 74 % 0 mm
04:04 -0.8 °C -4.8 °C 1023.9 hPa ENE 11.6 km/h 17.7 km/h 74 % 0 mm
04:09 -0.8 °C -4.7 °C 1023.9 hPa ENE 11.9 km/h 14.8 km/h 75 % 0 mm
04:14 -0.8 °C -4.8 °C 1023.9 hPa ENE 16.3 km/h 22.2 km/h 74 % 0 mm
04:19 -0.8 °C -4.8 °C 1023.9 hPa ENE 12.4 km/h 16.7 km/h 74 % 0 mm
04:25 -0.8 °C -4.7 °C 1024.3 hPa ENE 12.4 km/h 14.8 km/h 75 % 0 mm
04:30 -0.8 °C -4.8 °C 1023.9 hPa ENE 12.1 km/h 16.7 km/h 74 % 0 mm
04:35 -0.8 °C -4.7 °C 1023.9 hPa East 12.9 km/h 19.3 km/h 75 % 0 mm
04:40 -0.8 °C -4.7 °C 1023.9 hPa East 14.5 km/h 16.7 km/h 75 % 0 mm
04:45 -0.8 °C -4.7 °C 1023.9 hPa ENE 10.8 km/h 14.8 km/h 75 % 0 mm
04:50 -0.8 °C -4.7 °C 1023.6 hPa East 12.6 km/h 14.8 km/h 75 % 0 mm
04:55 -0.8 °C -4.7 °C 1023.2 hPa ENE 13.8 km/h 18.5 km/h 75 % 0 mm
05:00 -0.8 °C -4.9 °C 1023.2 hPa East 16.1 km/h 20.4 km/h 74 % 0 mm
05:05 -0.8 °C -4.9 °C 1023.2 hPa East 13 km/h 18.5 km/h 74 % 0 mm
05:10 -0.8 °C -4.9 °C 1023.6 hPa East 11.7 km/h 14.5 km/h 74 % 0 mm
05:15 -0.8 °C -4.9 °C 1023.6 hPa East 11.7 km/h 13 km/h 74 % 0 mm
05:20 -0.8 °C -4.7 °C 1023.9 hPa East 7.7 km/h 11.1 km/h 75 % 0 mm
05:25 -0.9 °C -4.9 °C 1023.6 hPa East 10.6 km/h 12.9 km/h 74 % 0 mm
05:30 -0.9 °C -4.8 °C 1023.9 hPa East 11.9 km/h 13 km/h 75 % 0 mm
05:35 -0.9 °C -5 °C 1023.9 hPa East 12.2 km/h 14.8 km/h 74 % 0 mm
05:40 -0.9 °C -4.8 °C 1023.9 hPa East 9.7 km/h 13 km/h 75 % 0 mm
05:45 -1 °C -4.7 °C 1022.9 hPa East 11.3 km/h 14.8 km/h 76 % 0 mm
05:51 -1 °C -4.7 °C 1023.2 hPa East 9.7 km/h 14.5 km/h 76 % 0 mm
05:56 -1.1 °C -4.8 °C 1023.6 hPa East 9.7 km/h 16.1 km/h 76 % 0 mm
06:01 -1.1 °C -4.8 °C 1023.2 hPa East 11.7 km/h 14.8 km/h 76 % 0 mm
06:06 -1.1 °C -4.8 °C 1023.2 hPa East 12.9 km/h 19.3 km/h 76 % 0 mm
06:11 -1.1 °C -4.8 °C 1023.2 hPa East 11.3 km/h 12.9 km/h 76 % 0 mm
06:16 -1.1 °C -4.8 °C 1023.2 hPa East 12.9 km/h 16.1 km/h 76 % 0 mm
06:21 -1.1 °C -4.6 °C 1022.6 hPa East 11.3 km/h 16.1 km/h 77 % 0 mm
06:26 -1 °C -4.5 °C 1022.6 hPa East 12.9 km/h 19.3 km/h 77 % 0 mm
06:31 -0.9 °C -4.5 °C 1022.6 hPa East 11.3 km/h 20.9 km/h 77 % 0 mm
06:36 -0.9 °C -4.4 °C 1022.6 hPa East 14.6 km/h 22.2 km/h 77 % 0 mm
06:41 -0.9 °C -4.4 °C 1022.2 hPa East 12.9 km/h 20.9 km/h 77 % 0 mm
06:46 -0.9 °C -4.2 °C 1021.9 hPa East 14.5 km/h 22.5 km/h 78 % 0 mm
06:51 -0.8 °C -4.2 °C 1021.9 hPa East 11.3 km/h 20.9 km/h 78 % 0 mm
06:56 -0.8 °C -4.2 °C 1022.2 hPa East 16.1 km/h 22.5 km/h 78 % 0 mm
07:01 -0.8 °C -4.3 °C 1021.9 hPa East 15.8 km/h 20.4 km/h 77 % 0 mm
07:06 -0.8 °C -4.3 °C 1021.9 hPa East 14.5 km/h 22.5 km/h 77 % 0 mm
07:11 -0.7 °C -4.1 °C 1021.9 hPa East 11.3 km/h 16.1 km/h 78 % 0 mm
07:16 -0.7 °C -4.1 °C 1021.9 hPa East 14.5 km/h 22.5 km/h 78 % 0 mm
07:21 -0.7 °C -4.2 °C 1021.9 hPa East 11.4 km/h 18.5 km/h 77 % 0 mm
07:26 -0.6 °C -4.2 °C 1021.6 hPa East 14.5 km/h 22.5 km/h 77 % 0 mm
07:31 -0.6 °C -4.1 °C 1021.2 hPa East 14.5 km/h 20.9 km/h 77 % 0 mm
07:36 -0.6 °C -4.1 °C 1021.2 hPa East 16.1 km/h 22.5 km/h 77 % 0 mm
07:41 -0.6 °C -4.1 °C 1021.2 hPa East 14.5 km/h 24.1 km/h 77 % 0 mm
07:46 -0.5 °C -3.9 °C 1021.2 hPa East 11.3 km/h 19.3 km/h 78 % 0 mm
07:51 -0.5 °C -3.9 °C 1021.2 hPa East 12.9 km/h 20.9 km/h 78 % 0 mm
07:56 -0.5 °C -3.9 °C 1021.2 hPa East 14.5 km/h 20.9 km/h 78 % 0 mm
08:01 -0.5 °C -4.1 °C 1021.2 hPa East 14 km/h 18.5 km/h 77 % 0 mm
08:06 -0.4 °C -4 °C 1020.9 hPa East 11.3 km/h 20.9 km/h 77 % 0 mm
08:11 -0.5 °C -4.1 °C 1020.9 hPa ENE 12.9 km/h 18.5 km/h 77 % 0 mm
08:16 -0.4 °C -4 °C 1020.5 hPa East 14.2 km/h 17.7 km/h 77 % 0 mm
08:21 -0.4 °C -3.8 °C 1020.5 hPa East 11.3 km/h 14.5 km/h 78 % 0 mm
08:26 -0.4 °C -3.8 °C 1020.9 hPa East 11.3 km/h 19.3 km/h 78 % 0 mm
08:31 -0.4 °C -3.8 °C 1020.5 hPa East 12.1 km/h 14.8 km/h 78 % 0 mm
08:36 -0.4 °C -3.8 °C 1020.5 hPa East 11.3 km/h 16.1 km/h 78 % 0 mm
08:41 -0.4 °C -3.6 °C 1020.2 hPa East 11.3 km/h 16.1 km/h 79 % 0 mm
08:46 -0.4 °C -3.6 °C 1020.2 hPa East 11.3 km/h 16.1 km/h 79 % 0 mm
08:51 -0.3 °C -3.6 °C 1020.2 hPa East 9.7 km/h 14.5 km/h 79 % 0 mm
08:56 -0.3 °C -3.6 °C 1020.2 hPa East 11.3 km/h 14.5 km/h 79 % 0 mm
09:01 -0.3 °C -3.4 °C 1020.2 hPa East 10.1 km/h 13 km/h 80 % 0 mm
09:06 -0.3 °C -3.3 °C 1020.2 hPa East 11.3 km/h 14.5 km/h 80 % 0 mm
09:11 -0.3 °C -3.2 °C 1019.9 hPa East 9.7 km/h 16.1 km/h 81 % 0 mm
09:16 -0.3 °C -3.1 °C 1019.9 hPa ENE 10.6 km/h 13 km/h 82 % 0 mm
09:21 -0.4 °C -2.9 °C 1019.9 hPa East 8 km/h 19.3 km/h 83 % 0 mm
09:26 -0.5 °C -2.9 °C 1019.9 hPa East 7.6 km/h 9.7 km/h 84 % 0 mm
09:31 -0.6 °C -2.8 °C 1019.5 hPa East 8 km/h 11.3 km/h 85 % 0 mm
09:36 -0.7 °C -2.7 °C 1019.5 hPa East 9.7 km/h 12.9 km/h 86 % 0 mm
09:41 -0.7 °C -2.6 °C 1019.5 hPa East 8 km/h 11.3 km/h 87 % 0 mm
09:46 -0.8 °C -2.7 °C 1019.5 hPa East 8 km/h 11.3 km/h 87 % 0 mm
09:51 -0.8 °C -2.6 °C 1019.2 hPa ENE 7.1 km/h 11.1 km/h 88 % 0 mm
09:56 -0.8 °C -2.4 °C 1018.8 hPa East 4.8 km/h 11.3 km/h 89 % 0 mm
10:01 -0.8 °C -2.4 °C 1018.8 hPa East 8 km/h 9.3 km/h 89 % 0 mm
10:06 -0.8 °C -2.2 °C 1018.8 hPa ENE 4.8 km/h 8 km/h 90 % 0 mm
10:11 -0.7 °C -2.2 °C 1018.8 hPa ENE 5.5 km/h 7.4 km/h 90 % 0 mm
10:16 -0.7 °C -2.1 °C 1018.5 hPa ENE 7.6 km/h 9.7 km/h 90 % 0 mm
10:21 -0.7 °C -2.1 °C 1018.2 hPa ENE 6.4 km/h 11.1 km/h 90 % 0 mm
10:26 -0.6 °C -1.9 °C 1018.2 hPa East 5.6 km/h 11.1 km/h 91 % 0 mm
10:31 -0.6 °C -1.8 °C 1018.2 hPa East 6 km/h 9.7 km/h 91 % 0 mm
10:36 -0.5 °C -1.8 °C 1017.5 hPa East 6.8 km/h 11.3 km/h 91 % 0 mm
10:41 -0.5 °C -1.8 °C 1017.2 hPa ENE 7.9 km/h 11.1 km/h 91 % 0 mm
10:46 -0.4 °C -1.6 °C 1017.2 hPa ENE 8.4 km/h 14.5 km/h 92 % 0 mm
10:51 -0.4 °C -1.6 °C 1017.2 hPa East 9.2 km/h 16.7 km/h 92 % 0 mm
10:56 -0.3 °C -1.5 °C 1016.8 hPa ENE 6.9 km/h 9.3 km/h 92 % 0 mm
11:01 -0.3 °C -1.4 °C 1016.8 hPa East 6.3 km/h 8 km/h 92 % 0 mm
11:06 -0.3 °C -1.4 °C 1016.8 hPa East 6 km/h 11.1 km/h 92 % 0 mm
11:12 -0.2 °C -1.4 °C 1016.1 hPa East 9.3 km/h 11.1 km/h 92 % 0 mm
11:17 -0.2 °C -1.2 °C 1016.5 hPa ENE 8.4 km/h 13 km/h 93 % 0 mm
11:22 -0.2 °C -1.2 °C 1016.5 hPa ENE 9.5 km/h 13 km/h 93 % 0 mm
11:27 -0.1 °C -1.1 °C 1016.5 hPa ENE 7.2 km/h 11.1 km/h 93 % 0 mm
11:32 -0.1 °C -1.1 °C 1016.1 hPa ENE 7.2 km/h 11.3 km/h 93 % 0 mm
11:37 0.1 °C -0.9 °C 1015.8 hPa ENE 7.1 km/h 13 km/h 93 % 0 mm
11:42 0.1 °C -0.9 °C 1015.5 hPa East 7.7 km/h 11.1 km/h 93 % 0 mm
11:47 0.2 °C -0.8 °C 1015.5 hPa East 8.9 km/h 11.1 km/h 93 % 0 mm
11:52 0.2 °C -0.8 °C 1015.1 hPa East 10 km/h 13 km/h 93 % 0 mm
11:57 0.2 °C -0.8 °C 1014.8 hPa East 8.9 km/h 9.7 km/h 93 % 0 mm
12:02 0.3 °C -0.7 °C 1014.8 hPa East 5.6 km/h 7.4 km/h 93 % 0 mm
12:07 0.3 °C -0.5 °C 1014.4 hPa ENE 7.9 km/h 11.1 km/h 94 % 0 mm
12:12 0.3 °C -0.5 °C 1014.1 hPa East 8.4 km/h 11.1 km/h 94 % 0 mm
12:17 0.4 °C -0.4 °C 1014.1 hPa East 9 km/h 11.3 km/h 94 % 0 mm
12:22 0.4 °C -0.4 °C 1013.8 hPa ENE 7.9 km/h 13 km/h 94 % 0 mm
12:27 0.4 °C -0.4 °C 1013.4 hPa East 9.5 km/h 11.1 km/h 94 % 0 mm
12:32 0.4 °C -0.4 °C 1013.1 hPa East 8.2 km/h 13 km/h 94 % 0 mm
12:37 0.5 °C -0.3 °C 1012.8 hPa East 10.8 km/h 13 km/h 94 % 0.25 mm
12:42 0.5 °C -0.3 °C 1013.1 hPa East 5.3 km/h 9.3 km/h 94 % 0.25 mm
12:47 0.5 °C -0.3 °C 1012.8 hPa ENE 5.6 km/h 11.1 km/h 94 % 0.51 mm
12:49 0.5 °C -0.3 °C 1013.1 hPa ENE 6.1 km/h 8 km/h 94 % 0.51 mm
12:54 0.6 °C -0.3 °C 1012.8 hPa ENE 7.4 km/h 13 km/h 94 % 0.51 mm
12:59 0.6 °C -0.3 °C 1012.4 hPa East 8.2 km/h 13 km/h 94 % 0.76 mm
13:04 0.6 °C -0.3 °C 1012.4 hPa East 8.9 km/h 14.8 km/h 94 % 1.02 mm
13:09 0.5 °C -0.2 °C 1012.1 hPa ENE 7.9 km/h 13 km/h 95 % 1.27 mm
13:14 0.4 °C -0.3 °C 1012.1 hPa ENE 7.9 km/h 13 km/h 95 % 1.27 mm
13:19 0.4 °C -0.3 °C 1012.1 hPa East 3.1 km/h 7.4 km/h 95 % 1.52 mm
13:24 0.4 °C -0.3 °C 1012.1 hPa ENE 9.2 km/h 13 km/h 95 % 1.52 mm
13:29 0.4 °C -0.3 °C 1011.7 hPa ENE 5.3 km/h 6.4 km/h 95 % 1.78 mm
13:34 0.4 °C -0.3 °C 1011.4 hPa ENE 6 km/h 9.3 km/h 95 % 1.78 mm
13:39 0.3 °C -0.4 °C 1011.1 hPa ENE 8 km/h 11.1 km/h 95 % 1.78 mm
13:44 0.3 °C -0.4 °C 1011.1 hPa ENE 6.9 km/h 13 km/h 95 % 1.78 mm
13:49 0.3 °C -0.4 °C 1010.7 hPa ENE 10.1 km/h 14.8 km/h 95 % 1.78 mm
13:54 0.2 °C -0.5 °C 1010.7 hPa NE 5.5 km/h 9.3 km/h 95 % 1.52 mm
13:59 0.2 °C -0.5 °C 1010.7 hPa ENE 8.4 km/h 11.3 km/h 95 % 1.52 mm
14:04 0.2 °C -0.5 °C 1010.4 hPa ENE 5.5 km/h 7.4 km/h 95 % 1.52 mm
14:09 0.2 °C -0.5 °C 1010.4 hPa ENE 6.6 km/h 9.3 km/h 95 % 1.52 mm
14:15 0.2 °C -0.3 °C 1010 hPa ENE 5.8 km/h 13 km/h 96 % 1.78 mm
14:20 0.2 °C -0.3 °C 1009.4 hPa ENE 6.8 km/h 11.3 km/h 96 % 1.78 mm
14:25 0.2 °C -0.5 °C 1009 hPa ENE 9 km/h 13 km/h 95 % 2.03 mm
14:30 0.2 °C -0.5 °C 1008.7 hPa ENE 7.1 km/h 11.1 km/h 95 % 2.03 mm
14:35 0.2 °C -0.3 °C 1008.4 hPa ENE 5.6 km/h 7.4 km/h 96 % 2.03 mm
14:40 0.3 °C -0.3 °C 1008 hPa ENE 6.1 km/h 12.9 km/h 96 % 2.29 mm
14:45 0.2 °C -0.3 °C 1008 hPa ENE 6.3 km/h 8 km/h 96 % 2.54 mm
14:50 0.2 °C -0.3 °C 1007.7 hPa ENE 4 km/h 5.6 km/h 96 % 2.29 mm
14:55 0.3 °C -0.3 °C 1007.7 hPa Calm     96 % 2.54 mm
15:00 0.3 °C -0.3 °C 1008 hPa Calm     96 % 2.79 mm
15:05 0.3 °C -0.3 °C 1007.3 hPa Calm     96 % 2.79 mm
15:10 0.3 °C -0.3 °C 1007.3 hPa Calm     96 % 2.79 mm
15:15 0.3 °C -0.3 °C 1007 hPa Calm     96 % 2.79 mm
15:20 0.3 °C -0.3 °C 1007 hPa Calm     96 % 2.54 mm
15:25 0.3 °C -0.2 °C 1006.7 hPa Calm     96 % 2.54 mm
15:30 0.3 °C -0.2 °C 1006.7 hPa Calm     96 % 2.29 mm
15:36 0.4 °C -0.2 °C 1006.7 hPa Calm     96 % 0 mm
15:41 0.4 °C -0.2 °C 1006.3 hPa Calm     96 % 2.29 mm
15:46 0.4 °C -0.1 °C 1006.3 hPa Calm     96 % 2.29 mm
15:51 0.4 °C -0.1 °C 1005.6 hPa Calm     96 % 2.54 mm
15:56 0.5 °C -0.1 °C 1005.6 hPa Calm     96 % 2.29 mm
16:01 0.5 °C -0.1 °C 1005.3 hPa Calm     96 % 2.29 mm
16:06 0.5 °C -0.1 °C 1005 hPa Calm     96 % 2.03 mm
16:11 0.6 °C 0 °C 1004.6 hPa Calm     96 % 1.78 mm
16:16 0.6 °C 0 °C 1004.3 hPa Calm     96 % 1.78 mm
16:21 0.6 °C 0.1 °C 1004.3 hPa Calm     96 % 1.52 mm
16:26 0.7 °C 0.1 °C 1004.6 hPa Calm     96 % 1.52 mm
16:31 0.7 °C 0.2 °C 1004.3 hPa Calm     97 % 1.52 mm
16:37 0.7 °C 0.2 °C 1003.9 hPa Calm     96 % 1.27 mm
16:42 0.8 °C 0.2 °C 1003.6 hPa Calm     96 % 1.27 mm
16:47 0.8 °C 0.2 °C 1003.3 hPa Calm     96 % 1.02 mm
16:52 1.1 °C 0.6 °C 1003.3 hPa Calm     97 % 0.76 mm
16:57 1.5 °C 1.1 °C 1002.9 hPa Calm     97 % 0.76 mm
17:02 2.1 °C 1.7 °C 1002.9 hPa South 6.9 km/h 16.1 km/h 97 % 0.51 mm
17:07 3.2 °C 2.8 °C 1002.6 hPa SSW 9.7 km/h 18.5 km/h 97 % 0.76 mm
17:12 4.2 °C 3.9 °C 1002.3 hPa SSW 9.8 km/h 16.7 km/h 98 % 0.51 mm
17:17 5.3 °C 5.1 °C 1002.3 hPa SSW 5.6 km/h 17.7 km/h 98 % 0.51 mm
17:22 6.3 °C 6 °C 1002.6 hPa SSW 7.6 km/h 18.5 km/h 98 % 0.76 mm
17:27 7.3 °C 7 °C 1002.3 hPa South 12.6 km/h 18.5 km/h 98 % 0.76 mm
17:32 7.9 °C 7.7 °C 1002.3 hPa SSW 10.8 km/h 20.4 km/h 98 % 0.76 mm
17:37 8.4 °C 8.2 °C 1001.9 hPa South 15.8 km/h 29 km/h 98 % 0.76 mm
17:42 9.1 °C 8.8 °C 1001.9 hPa South 10 km/h 18.5 km/h 98 % 0.76 mm
17:47 9.3 °C 9.1 °C 1002.3 hPa SSW 11.1 km/h 18.5 km/h 98 % 0.76 mm
17:52 9.6 °C 9.3 °C 1002.3 hPa SSW 17.2 km/h 35.2 km/h 98 % 1.02 mm
17:57 9.8 °C 9.5 °C 1001.9 hPa SSW 14.5 km/h 29.6 km/h 98 % 1.27 mm
18:02 9.9 °C 9.6 °C 1001.9 hPa SSW 7.4 km/h 14.8 km/h 98 % 1.52 mm
18:07 9.9 °C 9.7 °C 1002.6 hPa WSW 13.5 km/h 27.8 km/h 98 % 1.52 mm
18:13 9.9 °C 9.6 °C 1002.9 hPa WSW 12.6 km/h 25.9 km/h 98 % 2.29 mm
18:18 9.7 °C 9.4 °C 1003.3 hPa West 10.9 km/h 20.4 km/h 98 % 3.3 mm
18:23 9.3 °C 9.1 °C 1003.3 hPa West 6.9 km/h 14.8 km/h 98 % 3.81 mm
18:28 8.8 °C 8.6 °C 1003.6 hPa West 6 km/h 9.7 km/h 98 % 4.32 mm
18:33 8.5 °C 8.2 °C 1003.3 hPa SSW 5.6 km/h 11.1 km/h 98 % 4.57 mm
18:38 8.1 °C 7.6 °C 1003.3 hPa West 0.3 km/h 1.9 km/h 97 % 4.57 mm
18:43 7.6 °C 7.1 °C 1003.3 hPa WSW 7.9 km/h 16.7 km/h 97 % 4.57 mm
18:48 7.2 °C 6.8 °C 1003.6 hPa SW 4.5 km/h 9.7 km/h 97 % 4.83 mm
18:53 7 °C 6.6 °C 1003.6 hPa West 9.3 km/h 18.5 km/h 97 % 4.57 mm
18:58 6.8 °C 6.3 °C 1003.6 hPa SW 5.6 km/h 11.1 km/h 97 % 4.57 mm
19:03 6.7 °C 6.3 °C 1003.6 hPa WNW 10.3 km/h 27.8 km/h 97 % 4.57 mm
19:08 6.7 °C 6.4 °C 1003.6 hPa WSW 12.9 km/h 22.2 km/h 98 % 4.32 mm
19:13 6.8 °C 6.6 °C 1003.6 hPa WSW 13 km/h 27.8 km/h 98 % 3.56 mm
19:18 6.9 °C 6.6 °C 1003.9 hPa SW 14.2 km/h 25.9 km/h 98 % 3.05 mm
19:23 6.8 °C 6.6 °C 1003.9 hPa WSW 10.1 km/h 18.5 km/h 98 % 2.29 mm
19:28 6.8 °C 6.5 °C 1003.9 hPa WSW 11.6 km/h 18.5 km/h 98 % 1.78 mm
19:33 6.7 °C 6.4 °C 1003.6 hPa WSW 15 km/h 20.4 km/h 98 % 1.52 mm
19:38 6.6 °C 6.3 °C 1003.6 hPa WSW 8 km/h 25.9 km/h 98 % 1.52 mm
19:43 6.4 °C 6.2 °C 1003.6 hPa West 6.3 km/h 20.4 km/h 98 % 1.27 mm
19:48 6.3 °C 6.1 °C 1003.9 hPa West 10.8 km/h 18.5 km/h 98 % 1.02 mm
19:54 6.2 °C 5.9 °C 1003.9 hPa SW 7.4 km/h 18.5 km/h 98 % 1.02 mm
19:59 6.2 °C 5.7 °C 1004.3 hPa West 5.3 km/h 18.5 km/h 97 % 0.76 mm
20:04 6.1 °C 5.6 °C 1004.3 hPa WNW 7.1 km/h 14.8 km/h 97 % 0.76 mm
20:09 5.9 °C 5.5 °C 1004.3 hPa WSW 5.1 km/h 20.4 km/h 97 % 0.51 mm
20:14 5.8 °C 5.4 °C 1004.3 hPa West 10.3 km/h 18.5 km/h 97 % 0.51 mm
20:19 5.7 °C 5.3 °C 1004.6 hPa WSW 11.7 km/h 20.4 km/h 97 % 0.51 mm
20:24 5.6 °C 5.1 °C 1004.6 hPa WNW 10.9 km/h 22.2 km/h 97 % 0.51 mm
20:29 5.4 °C 5 °C 1005 hPa West 8.4 km/h 20.4 km/h 97 % 0.76 mm
20:34 5.3 °C 4.8 °C 1004.6 hPa WNW 6.6 km/h 14.8 km/h 97 % 0.76 mm
20:39 5.2 °C 4.7 °C 1005 hPa West 10.5 km/h 18.5 km/h 97 % 1.02 mm
20:44 5.1 °C 4.6 °C 1005 hPa West 5.6 km/h 29.6 km/h 97 % 1.02 mm
20:49 4.9 °C 4.5 °C 1005 hPa WNW 3.1 km/h 5.6 km/h 97 % 1.02 mm
20:54 4.8 °C 4.3 °C 1005 hPa WNW 9.5 km/h 16.7 km/h 97 % 1.02 mm
20:59 4.7 °C 4.2 °C 1005 hPa WSW 3.7 km/h 14.8 km/h 97 % 1.02 mm
21:04 4.6 °C 4.1 °C 1005.3 hPa West 10 km/h 14.5 km/h 97 % 0.76 mm
21:09 4.4 °C 3.9 °C 1005.3 hPa West 10.1 km/h 16.7 km/h 97 % 0.76 mm
21:15 4.3 °C 3.7 °C 1005.3 hPa WSW 9.8 km/h 16.7 km/h 96 % 0.76 mm
21:20 4.2 °C 3.6 °C 1005.3 hPa WSW 11.4 km/h 16.7 km/h 96 % 0.51 mm
21:25 4.1 °C 3.5 °C 1005.3 hPa WSW 11.1 km/h 18.5 km/h 96 % 0.51 mm
21:30 3.9 °C 3.4 °C 1005.6 hPa West 9.2 km/h 16.7 km/h 96 % 0.51 mm
21:35 3.8 °C 3.3 °C 1006 hPa WSW 8.2 km/h 16.7 km/h 96 % 0.51 mm
21:40 3.8 °C 3.2 °C 1006 hPa WNW 11.9 km/h 18.5 km/h 96 % 0.25 mm
21:45 3.7 °C 3.2 °C 1006 hPa WSW 2.3 km/h 7.4 km/h 96 % 0.25 mm
21:50 3.6 °C 3.1 °C 1006.3 hPa WSW 2.1 km/h 11.3 km/h 96 % 0.25 mm
21:55 3.5 °C 2.9 °C 1006.3 hPa WNW 5 km/h 11.1 km/h 96 % 0.25 mm
22:00 3.4 °C 2.7 °C 1006.3 hPa WNW 9.5 km/h 16.7 km/h 95 % 0.25 mm
22:05 3.3 °C 2.6 °C 1006.7 hPa WNW 4 km/h 16.7 km/h 95 % 0.25 mm
22:10 3.2 °C 2.5 °C 1006.7 hPa WNW 7.1 km/h 16.1 km/h 95 % 0.25 mm
22:15 3.2 °C 2.4 °C 1006.7 hPa WNW 6.1 km/h 16.7 km/h 95 % 0.25 mm
22:20 3.1 °C 2.4 °C 1006.7 hPa West 17.7 km/h 18.5 km/h 95 % 0.25 mm
22:25 3 °C 2.3 °C 1007 hPa NW 13 km/h 18.5 km/h 95 % 0.25 mm
22:30 2.9 °C 2.1 °C 1007 hPa WNW 8.2 km/h 11.1 km/h 94 % 0 mm
22:35 2.9 °C 2 °C 1007.3 hPa NW 6.3 km/h 14.8 km/h 94 % 0 mm
22:40 2.8 °C 1.9 °C 1007.3 hPa NW 7.2 km/h 13 km/h 94 % 0 mm
22:46 2.8 °C 1.9 °C 1007.7 hPa NW 5.6 km/h 13 km/h 94 % 0 mm
22:51 2.8 °C 1.9 °C 1007.7 hPa WNW 3.2 km/h 12.9 km/h 94 % 0 mm
22:56 2.7 °C 1.8 °C 1008 hPa NNW 8 km/h 16.1 km/h 94 % 0 mm
23:01 2.7 °C 1.8 °C 1007.7 hPa NW 8.2 km/h 8.2 km/h 94 % 0 mm
23:06 2.6 °C 1.7 °C 1008 hPa North 4.8 km/h 8 km/h 94 % 0 mm
23:11 2.5 °C 1.5 °C 1008.4 hPa North 10.5 km/h 18.5 km/h 93 % 0 mm
23:16 2.4 °C 1.4 °C 1008 hPa North 9.5 km/h 16.7 km/h 93 % 0 mm
23:21 2.3 °C 1.3 °C 1008.7 hPa NNW 8.4 km/h 20.9 km/h 93 % 0 mm
23:26 2.3 °C 1.3 °C 1008.7 hPa NNW 10.8 km/h 16.7 km/h 93 % 0 mm
23:31 2.2 °C 1.2 °C 1008.4 hPa NNE 9.7 km/h 18.5 km/h 93 % 0 mm
23:36 2.1 °C 0.9 °C 1008.4 hPa North 6.6 km/h 16.7 km/h 92 % 0 mm
23:41 2 °C 0.8 °C 1008.7 hPa WNW 7.6 km/h 13 km/h 92 % 0 mm
23:46 1.9 °C 0.8 °C 1009 hPa NNW 11.1 km/h 22.2 km/h 92 % 0 mm
23:51 1.9 °C 0.7 °C 1009 hPa NNW 10.1 km/h 22.2 km/h 92 % 0 mm
23:56 1.8 °C 0.4 °C 1009.4 hPa NNW 9 km/h 18.5 km/h 91 % 0 mm
Crab Meadow Weather
Compliments of Weather Underground - 3 mb

Script developed by  Jim McMurry - jmcmurry@mwt.net Adapted for the template by  Wim van der Kuil - Leuven-Template.eu

Astronomy: One year on Mercury is only 88 days.